Location: London
(51.5074°N, 0.1278°W)
Time: 07:39:01
(UTC+01:00)

OTV 5 (USA 277) - Visible Passes

Search period start: 14 October 2019 00:00
Search period end: 24 October 2019 00:00
Orbit: 310 x 324 km, 54.5° (Epoch: 08 October)

Date Brightness Start Highest point End Pass type
(mag) Time Alt. Az. Time Alt. Az. Time Alt. Az.
14 Oct ? 04:38:55 15° ENE 04:38:55 15° ENE 04:39:33 10° ENE visible
14 Oct ? 06:09:48 20° WNW 06:11:29 64° NNE 06:14:13 10° E visible
15 Oct ? 04:53:05 21° ENE 04:53:05 21° ENE 04:54:16 10° E visible
15 Oct ? 06:23:59 16° WNW 06:26:04 76° SSW 06:28:48 10° ESE visible
16 Oct ? 05:07:19 30° ENE 05:07:19 30° ENE 05:09:00 10° E visible
16 Oct ? 06:38:13 12° W 06:40:34 38° SSW 06:43:09 10° SE visible
17 Oct ? 05:21:37 44° ESE 05:21:37 44° ESE 05:23:39 10° ESE visible
18 Oct ? 05:36:01 43° SSE 05:36:01 43° SSE 05:38:08 10° SE visible
19 Oct ? 05:50:31 24° S 05:50:31 24° S 05:52:16 10° SSE visible
20 Oct ? 06:05:08 12° SSW 06:05:08 12° SSW 06:05:43 10° S visible
